Time,TemperatureF,DewpointF,PressureIn,WindDirection,WindDirectionDegrees,WindSpeedMPH,WindSpeedGustMPH,Humidity,HourlyPrecipIn,Conditions,Clouds,dailyrainin,SoftwareType,DateUTC
2013-03-08 00:00:00,43.5,32.9,30.39,SW,229,4.0,4.0,66,0.00,,---,0.00,VWS V14.01,2013-03-08 05:00:00,
2013-03-08 00:02:00,43.5,32.9,30.39,SW,229,4.0,4.0,66,0.00,,---,0.00,VWS V14.01,2013-03-08 05:02:00,
2013-03-08 00:07:00,43.5,32.9,30.39,SW,229,4.0,4.0,66,0.00,,---,0.00,VWS V14.01,2013-03-08 05:07:00,
2013-03-08 00:12:00,43.5,32.9,30.39,SW,229,4.0,4.0,66,0.00,,---,0.00,VWS V14.01,2013-03-08 05:12:00,
2013-03-08 00:17:00,43.5,32.9,30.39,SW,229,4.0,4.0,66,0.00,,---,0.00,VWS V14.01,2013-03-08 05:17:00,
2013-03-08 00:22:00,43.5,32.9,30.40,SW,229,4.0,4.0,66,0.00,,---,0.00,VWS V14.01,2013-03-08 05:22:00,
2013-03-08 00:27:00,43.5,32.9,30.40,SW,229,4.0,4.0,66,0.00,,---,0.00,VWS V14.01,2013-03-08 05:27:00,
2013-03-08 00:32:00,43.5,32.9,30.39,SW,229,4.0,4.0,66,0.00,,---,0.00,VWS V14.01,2013-03-08 05:32:00,
2013-03-08 00:37:00,43.5,32.9,30.39,SW,229,4.0,4.0,66,0.00,,---,0.00,VWS V14.01,2013-03-08 05:37:00,
2013-03-08 00:42:00,43.5,32.9,30.39,SW,229,4.0,4.0,66,0.00,,---,0.00,VWS V14.01,2013-03-08 05:42:00,
2013-03-08 00:47:00,43.5,32.9,30.39,SW,229,4.0,4.0,66,0.00,,---,0.00,VWS V14.01,2013-03-08 05:47:00,
2013-03-08 00:52:00,43.5,32.9,30.39,SW,229,4.0,4.0,66,0.00,,---,0.00,VWS V14.01,2013-03-08 05:52:00,
2013-03-08 00:57:00,43.5,32.9,30.38,SW,229,4.0,4.0,66,0.00,,---,0.00,VWS V14.01,2013-03-08 05:57:00,
2013-03-08 01:02:00,43.5,32.9,30.39,SW,229,4.0,4.0,66,0.00,,---,0.00,VWS V14.01,2013-03-08 06:02:00,
2013-03-08 01:07:00,43.5,32.9,30.38,SW,229,4.0,4.0,66,0.00,,---,0.00,VWS V14.01,2013-03-08 06:07:00,
2013-03-08 01:12:00,43.5,32.9,30.38,SW,229,4.0,4.0,66,0.00,,---,0.00,VWS V14.01,2013-03-08 06:12:00,
2013-03-08 01:17:00,43.5,32.9,30.38,SW,229,4.0,4.0,66,0.00,,---,0.00,VWS V14.01,2013-03-08 06:17:00,
2013-03-08 01:22:00,43.5,32.9,30.39,SW,229,4.0,4.0,66,0.00,,---,0.00,VWS V14.01,2013-03-08 06:22:00,
2013-03-08 01:27:00,43.5,32.9,30.39,SW,229,4.0,4.0,66,0.00,,---,0.00,VWS V14.01,2013-03-08 06:27:00,
2013-03-08 01:32:00,43.5,32.9,30.39,SW,229,4.0,4.0,66,0.00,,---,0.00,VWS V14.01,2013-03-08 06:32:00,
2013-03-08 01:37:00,43.5,32.9,30.39,SW,229,4.0,4.0,66,0.00,,---,0.00,VWS V14.01,2013-03-08 06:37:00,
2013-03-08 01:42:00,43.5,32.9,30.39,SW,229,4.0,4.0,66,0.00,,---,0.00,VWS V14.01,2013-03-08 06:42:00,
2013-03-08 01:47:00,43.5,32.9,30.39,SW,229,4.0,4.0,66,0.00,,---,0.00,VWS V14.01,2013-03-08 06:47:00,
2013-03-08 01:52:00,43.5,32.9,30.39,SW,229,4.0,4.0,66,0.00,,---,0.00,VWS V14.01,2013-03-08 06:52:00,
2013-03-08 01:57:00,43.5,32.9,30.39,SW,229,4.0,4.0,66,0.00,,---,0.00,VWS V14.01,2013-03-08 06:57:00,
2013-03-08 02:02:00,43.5,32.9,30.39,SW,229,4.0,4.0,66,0.00,,---,0.00,VWS V14.01,2013-03-08 07:02:00,
2013-03-08 02:07:00,43.5,32.9,30.39,SW,229,4.0,4.0,66,0.00,,---,0.00,VWS V14.01,2013-03-08 07:07:00,
2013-03-08 02:12:00,43.5,32.9,30.39,SW,229,4.0,4.0,66,0.00,,---,0.00,VWS V14.01,2013-03-08 07:12:00,
2013-03-08 02:17:00,43.5,32.9,30.39,SW,229,4.0,4.0,66,0.00,,---,0.00,VWS V14.01,2013-03-08 07:17:00,
2013-03-08 02:22:00,43.5,32.9,30.40,SW,229,4.0,4.0,66,0.00,,---,0.00,VWS V14.01,2013-03-08 07:22:00,
2013-03-08 02:28:00,43.5,32.9,30.40,SW,229,4.0,4.0,66,0.00,,---,0.00,VWS V14.01,2013-03-08 07:28:00,
2013-03-08 02:33:00,43.5,32.9,30.40,SW,229,4.0,4.0,66,0.00,,---,0.00,VWS V14.01,2013-03-08 07:33:00,
2013-03-08 02:38:00,43.5,32.9,30.40,SW,229,4.0,4.0,66,0.00,,---,0.00,VWS V14.01,2013-03-08 07:38:00,
2013-03-08 02:43:00,43.5,32.9,30.40,SW,229,4.0,4.0,66,0.00,,---,0.00,VWS V14.01,2013-03-08 07:43:00,
2013-03-08 02:48:00,43.5,32.9,30.40,SW,229,4.0,4.0,66,0.00,,---,0.00,VWS V14.01,2013-03-08 07:48:00,
2013-03-08 02:53:00,43.5,32.9,30.40,SW,229,4.0,4.0,66,0.00,,---,0.00,VWS V14.01,2013-03-08 07:53:00,
2013-03-08 02:58:00,43.5,32.9,30.40,SW,229,4.0,4.0,66,0.00,,---,0.00,VWS V14.01,2013-03-08 07:58:00,
2013-03-08 03:03:00,43.5,32.9,30.40,SW,229,4.0,4.0,66,0.00,,---,0.00,VWS V14.01,2013-03-08 08:03:00,
2013-03-08 03:08:00,43.5,32.9,30.40,SW,229,4.0,4.0,66,0.00,,---,0.00,VWS V14.01,2013-03-08 08:08:00,
2013-03-08 03:13:00,43.5,32.9,30.40,SW,229,4.0,4.0,66,0.00,,---,0.00,VWS V14.01,2013-03-08 08:13:00,
2013-03-08 03:18:00,43.5,32.9,30.40,SW,229,4.0,4.0,66,0.00,,---,0.00,VWS V14.01,2013-03-08 08:18:00,
2013-03-08 03:23:00,43.5,32.9,30.40,SW,229,4.0,4.0,66,0.00,,---,0.00,VWS V14.01,2013-03-08 08:23:00,
2013-03-08 03:28:00,43.5,32.9,30.40,SW,229,4.0,4.0,66,0.00,,---,0.00,VWS V14.01,2013-03-08 08:28:00,
2013-03-08 03:33:00,43.5,32.9,30.40,SW,229,4.0,4.0,66,0.00,,---,0.00,VWS V14.01,2013-03-08 08:33:00,
2013-03-08 03:38:00,43.5,32.9,30.39,SW,229,4.0,4.0,66,0.00,,---,0.00,VWS V14.01,2013-03-08 08:38:00,
2013-03-08 03:43:00,43.5,32.9,30.39,SW,229,4.0,4.0,66,0.00,,---,0.00,VWS V14.01,2013-03-08 08:43:00,
2013-03-08 03:48:00,43.5,32.9,30.39,SW,229,4.0,4.0,66,0.00,,---,0.00,VWS V14.01,2013-03-08 08:48:00,
2013-03-08 03:53:00,43.5,32.9,30.38,SW,229,4.0,4.0,66,0.00,,---,0.00,VWS V14.01,2013-03-08 08:53:00,
2013-03-08 03:58:00,43.5,32.9,30.38,SW,229,4.0,4.0,66,0.00,,---,0.00,VWS V14.01,2013-03-08 08:58:00,
2013-03-08 04:03:00,43.5,32.9,30.38,SW,229,4.0,4.0,66,0.00,,---,0.00,VWS V14.01,2013-03-08 09:03:00,
2013-03-08 04:08:00,43.5,32.9,30.38,SW,229,4.0,4.0,66,0.00,,---,0.00,VWS V14.01,2013-03-08 09:08:00,
2013-03-08 04:13:00,43.5,32.9,30.38,SW,229,4.0,4.0,66,0.00,,---,0.00,VWS V14.01,2013-03-08 09:13:00,
2013-03-08 04:18:00,43.5,32.9,30.39,SW,229,4.0,4.0,66,0.00,,---,0.00,VWS V14.01,2013-03-08 09:18:00,
2013-03-08 04:23:00,43.5,32.9,30.38,SW,229,4.0,4.0,66,0.00,,---,0.00,VWS V14.01,2013-03-08 09:23:00,
2013-03-08 04:28:00,43.5,32.9,30.39,SW,229,4.0,4.0,66,0.00,,---,0.00,VWS V14.01,2013-03-08 09:28:00,
2013-03-08 04:33:00,43.5,32.9,30.39,SW,229,4.0,4.0,66,0.00,,---,0.00,VWS V14.01,2013-03-08 09:33:00,
2013-03-08 04:38:00,43.5,32.9,30.39,SW,229,4.0,4.0,66,0.00,,---,0.00,VWS V14.01,2013-03-08 09:38:00,
2013-03-08 04:43:00,43.5,32.9,30.39,SW,229,4.0,4.0,66,0.00,,---,0.00,VWS V14.01,2013-03-08 09:43:00,
2013-03-08 04:48:00,43.5,32.9,30.39,SW,229,4.0,4.0,66,0.00,,---,0.00,VWS V14.01,2013-03-08 09:48:00,
2013-03-08 04:53:00,43.5,32.9,30.40,SW,229,4.0,4.0,66,0.00,,---,0.00,VWS V14.01,2013-03-08 09:53:00,
2013-03-08 04:58:00,43.5,32.9,30.40,SW,229,4.0,4.0,66,0.00,,---,0.00,VWS V14.01,2013-03-08 09:58:00,
2013-03-08 12:30:00,51.5,32.0,30.44,WSW,248,4.0,10.0,47,0.00,,---,0.00,VWS V14.01,2013-03-08 17:30:00,
2013-03-08 14:01:00,51.5,32.0,30.44,WSW,248,4.0,10.0,47,0.00,,---,0.00,VWS V14.01,2013-03-08 19:01:00,
2013-03-08 14:06:00,55.2,32.5,30.36,SW,220,4.0,4.0,42,0.00,,---,0.00,VWS V14.01,2013-03-08 19:06:00,
2013-03-08 14:11:00,55.3,30.8,30.35,SW,223,7.0,14.0,39,0.00,,---,0.00,VWS V14.01,2013-03-08 19:11:00,
2013-03-08 14:16:00,54.9,29.8,30.35,SW,214,3.0,14.0,38,0.00,,---,0.00,VWS V14.01,2013-03-08 19:16:00,
2013-03-08 14:21:00,54.7,30.9,30.35,SSW,192,1.0,14.0,40,0.00,,---,0.00,VWS V14.01,2013-03-08 19:21:00,
2013-03-08 14:26:00,54.9,31.0,30.34,WSW,248,5.0,14.0,40,0.00,,---,0.00,VWS V14.01,2013-03-08 19:26:00,
2013-03-08 14:31:00,55.3,31.4,30.34,SW,216,1.0,14.0,40,0.00,,---,0.00,VWS V14.01,2013-03-08 19:31:00,
2013-03-08 14:36:00,55.7,29.2,30.34,West,277,4.0,5.0,36,0.00,,---,0.00,VWS V14.01,2013-03-08 19:36:00,
2013-03-08 14:41:00,55.8,30.6,30.34,WSW,252,1.0,7.0,38,0.00,,---,0.00,VWS V14.01,2013-03-08 19:41:00,
2013-03-08 14:46:00,55.9,29.4,30.34,South,170,9.0,10.0,36,0.00,,---,0.00,VWS V14.01,2013-03-08 19:46:00,
2013-03-08 14:51:00,56.1,29.5,30.33,West,259,3.0,10.0,36,0.00,,---,0.00,VWS V14.01,2013-03-08 19:51:00,
2013-03-08 14:56:00,56.4,29.8,30.33,WSW,242,4.0,10.0,36,0.00,,---,0.00,VWS V14.01,2013-03-08 19:56:00,
2013-03-08 15:01:00,56.7,30.1,30.33,SSW,192,5.0,10.0,36,0.00,,---,0.00,VWS V14.01,2013-03-08 20:01:00,
2013-03-08 15:06:00,56.7,29.4,30.33,SW,233,2.0,5.0,35,0.00,,---,0.00,VWS V14.01,2013-03-08 20:06:00,
2013-03-08 15:11:00,56.7,27.9,30.32,SSW,200,4.0,11.0,33,0.00,,---,0.00,VWS V14.01,2013-03-08 20:11:00,
2013-03-08 15:16:00,56.3,26.8,30.32,West,271,4.0,14.0,32,0.00,,---,0.00,VWS V14.01,2013-03-08 20:16:00,
2013-03-08 15:21:00,56.1,25.9,30.32,WSW,252,3.0,14.0,31,0.00,,---,0.00,VWS V14.01,2013-03-08 20:21:00,
2013-03-08 15:26:00,55.9,26.5,30.32,SW,217,3.0,14.0,32,0.00,,---,0.00,VWS V14.01,2013-03-08 20:26:00,
2013-03-08 15:31:00,55.8,25.6,30.32,WSW,246,6.0,14.0,31,0.00,,---,0.00,VWS V14.01,2013-03-08 20:31:00,
2013-03-08 15:36:00,55.7,26.3,30.32,WSW,242,4.0,4.0,32,0.00,,---,0.00,VWS V14.01,2013-03-08 20:36:00,
2013-03-08 15:41:00,55.9,28.7,30.32,West,272,6.0,11.0,35,0.00,,---,0.00,VWS V14.01,2013-03-08 20:41:00,
2013-03-08 15:46:00,56.0,29.4,30.32,South,190,7.0,11.0,36,0.00,,---,0.00,VWS V14.01,2013-03-08 20:46:00,
2013-03-08 15:51:00,56.1,28.8,30.32,West,262,2.0,12.0,35,0.00,,---,0.00,VWS V14.01,2013-03-08 20:51:00,
2013-03-08 15:56:00,56.3,29.7,30.32,SW,214,2.0,12.0,36,0.00,,---,0.00,VWS V14.01,2013-03-08 20:56:00,
2013-03-08 16:16:00,56.4,29.8,30.31,West,272,1.0,1.0,36,0.00,,---,0.00,VWS V14.01,2013-03-08 21:16:00,
2013-03-08 16:21:00,56.4,29.1,30.32,SSW,213,1.0,7.0,35,0.00,,---,0.00,VWS V14.01,2013-03-08 21:21:00,
2013-03-08 16:26:00,56.3,29.0,30.32,WSW,250,2.0,7.0,35,0.00,,---,0.00,VWS V14.01,2013-03-08 21:26:00,
2013-03-08 16:31:00,56.2,30.3,30.32,SW,222,5.0,7.0,37,0.00,,---,0.00,VWS V14.01,2013-03-08 21:31:00,
2013-03-08 16:36:00,56.0,29.4,30.32,SSW,211,1.0,6.0,36,0.00,,---,0.00,VWS V14.01,2013-03-08 21:36:00,
2013-03-08 16:41:00,55.8,29.9,30.32,WSW,245,2.0,6.0,37,0.00,,---,0.00,VWS V14.01,2013-03-08 21:41:00,
2013-03-08 16:46:00,55.9,30.0,30.32,SW,227,3.0,6.0,37,0.00,,---,0.00,VWS V14.01,2013-03-08 21:46:00,
2013-03-08 16:51:00,56.0,30.1,30.32,SW,230,3.0,7.0,37,0.00,,---,0.00,VWS V14.01,2013-03-08 21:51:00,
2013-03-08 16:56:00,56.2,29.6,30.32,West,260,4.0,7.0,36,0.00,,---,0.00,VWS V14.01,2013-03-08 21:56:00,
2013-03-08 17:01:00,56.3,29.7,30.32,WSW,246,1.0,7.0,36,0.00,,---,0.00,VWS V14.01,2013-03-08 22:01:00,
2013-03-08 17:06:00,56.3,30.4,30.31,West,269,1.0,2.0,37,0.00,,---,0.00,VWS V14.01,2013-03-08 22:06:00,
2013-03-08 17:11:00,56.4,29.8,30.32,West,279,0.0,4.0,36,0.00,,---,0.00,VWS V14.01,2013-03-08 22:11:00,
2013-03-08 17:16:00,56.6,31.3,30.32,WSW,246,3.0,4.0,38,0.00,,---,0.00,VWS V14.01,2013-03-08 22:16:00,
2013-03-08 17:21:00,56.7,31.4,30.31,SW,230,3.0,5.0,38,0.00,,---,0.00,VWS V14.01,2013-03-08 22:21:00,
2013-03-08 17:26:00,56.6,31.3,30.31,West,261,4.0,5.0,38,0.00,,---,0.00,VWS V14.01,2013-03-08 22:26:00,
2013-03-08 17:31:00,56.3,31.7,30.31,WSW,238,2.0,5.0,39,0.00,,---,0.00,VWS V14.01,2013-03-08 22:31:00,
2013-03-08 17:36:00,56.1,30.9,30.32,WSW,256,2.0,3.0,38,0.00,,---,0.00,VWS V14.01,2013-03-08 22:36:00,
2013-03-08 17:41:00,55.8,31.9,30.32,WSW,257,2.0,3.0,40,0.00,,---,0.00,VWS V14.01,2013-03-08 22:41:00,
2013-03-08 17:46:00,55.3,31.4,30.33,West,259,1.0,4.0,40,0.00,,---,0.00,VWS V14.01,2013-03-08 22:46:00,
2013-03-08 17:51:00,54.8,33.9,30.33,WSW,257,0.0,4.0,45,0.00,,---,0.00,VWS V14.01,2013-03-08 22:51:00,
2013-03-08 17:56:00,54.2,32.2,30.33,WSW,257,0.0,4.0,43,0.00,,---,0.00,VWS V14.01,2013-03-08 22:56:00,
2013-03-08 18:01:00,53.5,33.2,30.32,West,259,0.0,4.0,46,0.00,,---,0.00,VWS V14.01,2013-03-08 23:01:00,
2013-03-08 18:06:00,52.9,31.6,30.32,SW,219,1.0,1.0,44,0.00,,---,0.00,VWS V14.01,2013-03-08 23:06:00,
2013-03-08 18:11:00,52.4,32.2,30.32,WSW,248,0.0,5.0,46,0.00,,---,0.00,VWS V14.01,2013-03-08 23:11:00,
2013-03-08 18:16:00,51.9,31.8,30.32,WSW,248,0.0,5.0,46,0.00,,---,0.00,VWS V14.01,2013-03-08 23:16:00,
2013-03-08 18:21:00,51.2,32.7,30.32,WSW,249,0.0,5.0,49,0.00,,---,0.00,VWS V14.01,2013-03-08 23:21:00,
2013-03-08 18:26:00,50.6,33.2,30.32,WSW,249,0.0,5.0,51,0.00,,---,0.00,VWS V14.01,2013-03-08 23:26:00,
2013-03-08 18:31:00,50.1,32.2,30.32,SSW,209,0.0,5.0,50,0.00,,---,0.00,VWS V14.01,2013-03-08 23:31:00,
2013-03-08 18:36:00,49.6,33.2,30.32,SW,234,1.0,1.0,53,0.00,,---,0.00,VWS V14.01,2013-03-08 23:36:00,
2013-03-08 18:41:00,49.0,32.2,30.32,SW,234,0.0,1.0,52,0.00,,---,0.00,VWS V14.01,2013-03-08 23:41:00,
2013-03-08 18:46:00,48.3,32.0,30.32,WSW,238,0.0,4.0,53,0.00,,---,0.00,VWS V14.01,2013-03-08 23:46:00,
2013-03-08 18:51:00,47.7,31.4,30.33,WSW,237,0.0,4.0,53,0.00,,---,0.00,VWS V14.01,2013-03-08 23:51:00,
2013-03-08 18:56:00,47.3,32.4,30.33,WSW,237,1.0,4.0,56,0.00,,---,0.00,VWS V14.01,2013-03-08 23:56:00,
2013-03-08 19:01:00,46.9,32.5,30.34,WSW,238,0.0,4.0,57,0.00,,---,0.00,VWS V14.01,2013-03-09 00:01:00,
2013-03-08 19:06:00,46.6,31.8,30.34,WSW,237,0.0,0.0,56,0.00,,---,0.00,VWS V14.01,2013-03-09 00:06:00,
2013-03-08 19:11:00,46.2,32.2,30.35,WSW,237,0.0,1.0,58,0.00,,---,0.00,VWS V14.01,2013-03-09 00:11:00,
2013-03-08 19:16:00,45.8,31.9,30.35,WSW,238,0.0,1.0,58,0.00,,---,0.00,VWS V14.01,2013-03-09 00:16:00,
2013-03-08 19:21:00,45.4,31.9,30.35,WSW,238,0.0,1.0,59,0.00,,---,0.00,VWS V14.01,2013-03-09 00:21:00,
2013-03-08 19:26:00,44.9,32.7,30.35,WSW,237,1.0,1.0,62,0.00,,---,0.00,VWS V14.01,2013-03-09 00:26:00,
2013-03-08 19:31:00,44.4,32.2,30.35,WSW,237,0.0,1.0,62,0.00,,---,0.00,VWS V14.01,2013-03-09 00:31:00,
2013-03-08 19:36:00,44.0,32.6,30.35,WSW,238,0.0,0.0,64,0.00,,---,0.00,VWS V14.01,2013-03-09 00:36:00,
2013-03-08 19:41:00,43.6,32.6,30.35,WSW,238,0.0,0.0,65,0.00,,---,0.00,VWS V14.01,2013-03-09 00:41:00,
2013-03-08 19:46:00,43.2,32.6,30.35,WSW,237,1.0,1.0,66,0.00,,---,0.00,VWS V14.01,2013-03-09 00:46:00,
2013-03-08 19:51:00,42.8,32.2,30.35,WSW,237,0.0,1.0,66,0.00,,---,0.00,VWS V14.01,2013-03-09 00:51:00,
2013-03-08 19:56:00,42.3,32.1,30.35,WSW,237,0.0,1.0,67,0.00,,---,0.00,VWS V14.01,2013-03-09 00:56:00,
2013-03-08 20:01:00,41.9,32.1,30.35,WSW,238,0.0,1.0,68,0.00,,---,0.00,VWS V14.01,2013-03-09 01:01:00,
2013-03-08 20:06:00,41.5,32.1,30.35,WSW,238,1.0,1.0,69,0.00,,---,0.00,VWS V14.01,2013-03-09 01:06:00,
2013-03-08 20:11:00,41.4,32.0,30.36,WSW,238,0.0,1.0,69,0.00,,---,0.00,VWS V14.01,2013-03-09 01:11:00,
2013-03-08 20:16:00,41.3,32.3,30.36,WSW,237,1.0,1.0,70,0.00,,---,0.00,VWS V14.01,2013-03-09 01:16:00,
2013-03-08 20:21:00,41.1,32.1,30.36,WSW,238,0.0,1.0,70,0.00,,---,0.00,VWS V14.01,2013-03-09 01:21:00,
2013-03-08 20:26:00,40.9,32.6,30.36,WSW,238,0.0,1.0,72,0.00,,---,0.00,VWS V14.01,2013-03-09 01:26:00,
2013-03-08 20:31:00,40.7,32.0,30.36,WSW,238,0.0,1.0,71,0.00,,---,0.00,VWS V14.01,2013-03-09 01:31:00,
2013-03-08 20:36:00,40.5,32.2,30.36,WSW,238,0.0,1.0,72,0.00,,---,0.00,VWS V14.01,2013-03-09 01:36:00,
2013-03-08 20:41:00,40.3,31.7,30.36,WSW,238,1.0,1.0,71,0.00,,---,0.00,VWS V14.01,2013-03-09 01:41:00,
2013-03-08 20:46:00,40.2,31.6,30.36,WSW,238,1.0,1.0,71,0.00,,---,0.00,VWS V14.01,2013-03-09 01:46:00,
2013-03-08 20:51:00,40.3,31.7,30.36,WSW,238,0.0,1.0,71,0.00,,---,0.00,VWS V14.01,2013-03-09 01:51:00,
2013-03-08 20:56:00,40.3,31.7,30.36,WSW,238,0.0,1.0,71,0.00,,---,0.00,VWS V14.01,2013-03-09 01:56:00,
2013-03-08 21:01:00,40.2,32.2,30.36,WSW,237,0.0,1.0,73,0.00,,---,0.00,VWS V14.01,2013-03-09 02:01:00,
2013-03-08 21:06:00,40.1,31.8,30.36,WSW,237,0.0,1.0,72,0.00,,---,0.00,VWS V14.01,2013-03-09 02:06:00,
2013-03-08 21:10:00,39.9,32.0,30.36,WSW,238,0.0,0.0,73,0.00,,---,0.00,VWS V14.01,2013-03-09 02:10:00,
2013-03-08 21:16:00,39.7,31.8,30.36,WSW,238,1.0,1.0,73,0.00,,---,0.00,VWS V14.01,2013-03-09 02:16:00,
2013-03-08 21:21:00,39.4,31.8,30.36,WSW,237,0.0,1.0,74,0.00,,---,0.00,VWS V14.01,2013-03-09 02:21:00,
2013-03-08 21:25:00,39.1,31.5,30.36,WSW,237,0.0,1.0,74,0.00,,---,0.00,VWS V14.01,2013-03-09 02:25:00,
2013-03-08 21:30:00,38.9,31.0,30.36,WSW,237,0.0,1.0,73,0.00,,---,0.00,VWS V14.01,2013-03-09 02:30:00,
2013-03-08 21:35:00,38.7,31.5,30.36,WSW,238,0.0,1.0,75,0.00,,---,0.00,VWS V14.01,2013-03-09 02:35:00,
2013-03-08 21:40:00,38.5,31.3,30.36,WSW,237,0.0,0.0,75,0.00,,---,0.00,VWS V14.01,2013-03-09 02:40:00,
2013-03-08 21:45:00,38.3,31.7,30.36,WSW,238,0.0,0.0,77,0.00,,---,0.00,VWS V14.01,2013-03-09 02:45:00,
2013-03-08 21:50:00,38.2,31.0,30.36,WSW,238,0.0,0.0,75,0.00,,---,0.00,VWS V14.01,2013-03-09 02:50:00,
2013-03-08 21:55:00,38.0,31.4,30.36,WSW,238,0.0,0.0,77,0.00,,---,0.00,VWS V14.01,2013-03-09 02:55:00,
2013-03-08 22:00:00,37.8,30.9,30.36,WSW,238,0.0,0.0,76,0.00,,---,0.00,VWS V14.01,2013-03-09 03:00:00,
2013-03-08 22:05:00,37.6,31.1,30.36,WSW,237,0.0,0.0,77,0.00,,---,0.00,VWS V14.01,2013-03-09 03:05:00,
2013-03-08 22:10:00,37.5,31.3,30.35,WSW,237,0.0,0.0,78,0.00,,---,0.00,VWS V14.01,2013-03-09 03:10:00,
2013-03-08 22:15:00,37.3,31.1,30.36,WSW,238,0.0,0.0,78,0.00,,---,0.00,VWS V14.01,2013-03-09 03:15:00,
2013-03-08 22:20:00,37.2,31.0,30.36,WSW,238,0.0,0.0,78,0.00,,---,0.00,VWS V14.01,2013-03-09 03:20:00,
2013-03-08 22:25:00,37.0,31.1,30.36,WSW,238,0.0,1.0,79,0.00,,---,0.00,VWS V14.01,2013-03-09 03:25:00,
2013-03-08 22:30:00,36.9,30.7,30.36,WSW,238,0.0,1.0,78,0.00,,---,0.00,VWS V14.01,2013-03-09 03:30:00,
2013-03-08 22:35:00,36.8,30.9,30.37,WSW,237,0.0,1.0,79,0.00,,---,0.00,VWS V14.01,2013-03-09 03:35:00,
2013-03-08 22:40:00,36.7,30.8,30.36,WSW,237,0.0,1.0,79,0.00,,---,0.00,VWS V14.01,2013-03-09 03:40:00,
2013-03-08 22:45:00,36.5,30.6,30.36,WSW,238,0.0,1.0,79,0.00,,---,0.00,VWS V14.01,2013-03-09 03:45:00,
2013-03-08 22:50:00,36.3,31.0,30.36,WSW,238,0.0,1.0,81,0.00,,---,0.00,VWS V14.01,2013-03-09 03:50:00,
2013-03-08 22:55:00,36.1,30.8,30.36,WSW,238,0.0,1.0,81,0.00,,---,0.00,VWS V14.01,2013-03-09 03:55:00,
2013-03-08 23:00:00,35.9,30.6,30.36,WSW,238,0.0,1.0,81,0.00,,---,0.00,VWS V14.01,2013-03-09 04:00:00,
2013-03-08 23:05:00,35.9,30.6,30.36,WSW,237,0.0,1.0,81,0.00,,---,0.00,VWS V14.01,2013-03-09 04:05:00,
2013-03-08 23:10:00,35.7,30.8,30.36,WSW,238,0.0,0.0,82,0.00,,---,0.00,VWS V14.01,2013-03-09 04:10:00,
2013-03-08 23:15:00,35.6,30.7,30.36,WSW,238,0.0,1.0,82,0.00,,---,0.00,VWS V14.01,2013-03-09 04:15:00,
2013-03-08 23:20:00,35.4,30.5,30.36,WSW,238,0.0,1.0,82,0.00,,---,0.00,VWS V14.01,2013-03-09 04:20:00,
2013-03-08 23:25:00,35.2,30.3,30.36,WSW,238,0.0,1.0,82,0.00,,---,0.00,VWS V14.01,2013-03-09 04:25:00,
2013-03-08 23:30:00,35.1,30.5,30.37,WSW,237,0.0,1.0,83,0.00,,---,0.00,VWS V14.01,2013-03-09 04:30:00,
2013-03-08 23:35:00,35.0,30.4,30.37,WSW,238,0.0,1.0,83,0.00,,---,0.00,VWS V14.01,2013-03-09 04:35:00,
2013-03-08 23:40:00,35.1,30.8,30.37,WSW,238,0.0,1.0,84,0.00,,---,0.00,VWS V14.01,2013-03-09 04:40:00,
2013-03-08 23:45:00,35.1,30.8,30.37,WSW,238,0.0,1.0,84,0.00,,---,0.00,VWS V14.01,2013-03-09 04:45:00,
2013-03-08 23:50:00,35.1,30.8,30.36,WSW,237,0.0,1.0,84,0.00,,---,0.00,VWS V14.01,2013-03-09 04:50:00,
2013-03-08 23:55:00,35.0,30.7,30.36,WSW,238,0.0,1.0,84,0.00,,---,0.00,VWS V14.01,2013-03-09 04:55:00,